This is the latest recevied weather packets stored in our database for station/object N1YZ. If no packets are shown the sender has not sent any weather packets the latest 10 day(s).
| Time | Temp. | Humidity | Pressure | Rain* | Wind** | Luminosity | Snow |
|---|---|---|---|---|---|---|---|
| 1777599094 | 15.56° C | 73% | 1032.9 hPa | 0 mm | - | 0 W/m² | - |
| 1777598793 | 15.56° C | 72% | 1032.8 hPa | 0 mm | - | 0 W/m² | - |
| 1777598486 | 15.56° C | 72% | 1032.8 hPa | 0 mm | - | 0 W/m² | - |
| 1777598186 | 15.56° C | 72% | 1032.6 hPa | 0 mm | - | 0 W/m² | - |
| 1777597880 | 15.56° C | 72% | 1032.7 hPa | 0 mm | - | 0 W/m² | - |
| 1777597575 | 15.56° C | 73% | 1032.7 hPa | 0 mm | - | 0 W/m² | - |
| 1777597271 | 16.11° C | 72% | 1032.6 hPa | 0 mm | - | 0 W/m² | - |
| 1777596966 | 16.11° C | 71% | 1032.7 hPa | 0 mm | - | 0 W/m² | - |
| 1777596663 | 16.67° C | 72% | 1032.8 hPa | 0 mm | - | 0 W/m² | - |
| 1777596360 | 16.67° C | 71% | 1032.8 hPa | 0 mm | - | 0 W/m² | - |
| 1777596058 | 16.67° C | 73% | 1032.8 hPa | 0 mm | - | 0 W/m² | - |
| 1777595757 | 16.67° C | 72% | 1032.6 hPa | 0 mm | - | 0 W/m² | - |
| 1777595453 | 16.11° C | 74% | 1032.6 hPa | 0 mm | - | 1 W/m² | - |
| 1777595149 | 16.11° C | 76% | 1032.8 hPa | 0 mm | - | 1 W/m² | - |
| 1777594846 | 16.67° C | 77% | 1032.6 hPa | 0 mm | - | 2 W/m² | - |
| 1777594542 | 16.67° C | 74% | 1032.5 hPa | 0 mm | - | 3 W/m² | - |
| 1777594239 | 16.67° C | 74% | 1032.5 hPa | 0 mm | - | 5 W/m² | - |
| 1777593934 | 17.22° C | 76% | 1032.3 hPa | 0 mm | - | 8 W/m² | - |
| 1777593631 | 17.22° C | 75% | 1032.1 hPa | 0 mm | - | 14 W/m² | - |
| 1777593327 | 17.22° C | 75% | 1032.1 hPa | 0 mm | - | 19 W/m² | - |
| 1777593020 | 17.22° C | 72% | 1032 hPa | 0 mm | - | 24 W/m² | - |
| 1777592710 | 17.22° C | 72% | 1032.1 hPa | 0 mm | - | 19 W/m² | - |
| 1777592406 | 17.22° C | 73% | 1032.1 hPa | 0 mm | - | 16 W/m² | - |
| 1777592100 | 17.78° C | 75% | 1031.8 hPa | 0 mm | - | 17 W/m² | - |
| 1777591799 | 17.78° C | 75% | 1032.1 hPa | 0 mm | - | 17 W/m² | - |
* Rain latest hour (hover to see other rain measurements)
** Current wind speed in m/s (hover to see current wind gust speed)